TimePST,TemperatureF,Dew PointF,Humidity,Sea Level PressureIn,VisibilityMPH,Wind Direction,Wind SpeedMPH,Gust SpeedMPH,PrecipitationIn,Events,Conditions,WindDirDegrees,DateUTC
12:56 AM,39.9,33.1,77,30.42,10.0,Calm,Calm,-,N/A,,Clear,0,2013-01-15 08:56:00
1:56 AM,37.9,32.0,79,30.43,10.0,Calm,Calm,-,N/A,,Clear,0,2013-01-15 09:56:00
2:56 AM,37.9,33.1,83,30.44,10.0,South,4.6,-,N/A,,Clear,180,2013-01-15 10:56:00
3:56 AM,39.0,32.0,76,30.44,10.0,Calm,Calm,-,N/A,,Clear,0,2013-01-15 11:56:00
4:56 AM,37.0,32.0,82,30.43,10.0,Calm,Calm,-,N/A,,Clear,0,2013-01-15 12:56:00
5:56 AM,37.0,32.0,82,30.44,10.0,Calm,Calm,-,N/A,,Clear,0,2013-01-15 13:56:00
6:56 AM,37.0,33.1,86,30.45,10.0,Calm,Calm,-,N/A,,Scattered Clouds,0,2013-01-15 14:56:00
7:56 AM,37.9,33.1,83,30.47,10.0,Calm,Calm,-,N/A,,Mostly Cloudy,0,2013-01-15 15:56:00
8:56 AM,39.9,33.1,77,30.49,10.0,Calm,Calm,-,N/A,,Mostly Cloudy,0,2013-01-15 16:56:00
9:56 AM,43.0,33.1,68,30.49,10.0,Calm,Calm,-,N/A,,Mostly Cloudy,0,2013-01-15 17:56:00
10:56 AM,45.0,33.1,63,30.48,10.0,Calm,Calm,-,N/A,,Mostly Cloudy,0,2013-01-15 18:56:00
11:56 AM,46.0,33.1,61,30.47,10.0,Calm,Calm,-,N/A,,Mostly Cloudy,0,2013-01-15 19:56:00
12:56 PM,48.0,30.9,52,30.44,10.0,NNE,4.6,-,N/A,,Mostly Cloudy,20,2013-01-15 20:56:00
1:56 PM,50.0,28.9,44,30.43,10.0,Calm,Calm,-,N/A,,Mostly Cloudy,0,2013-01-15 21:56:00
2:56 PM,51.1,30.9,46,30.42,10.0,Calm,Calm,-,N/A,,Mostly Cloudy,0,2013-01-15 22:56:00
3:56 PM,53.1,26.1,35,30.42,10.0,Calm,Calm,-,N/A,,Mostly Cloudy,0,2013-01-15 23:56:00
4:56 PM,50.0,35.1,57,30.43,10.0,NNW,11.5,-,N/A,,Scattered Clouds,330,2013-01-16 00:56:00
5:56 PM,48.9,30.9,50,30.43,10.0,NNW,8.1,-,N/A,,Partly Cloudy,330,2013-01-16 01:56:00
6:56 PM,48.0,28.9,48,30.43,10.0,NNW,6.9,-,N/A,,Partly Cloudy,330,2013-01-16 02:56:00
7:56 PM,48.9,30.0,48,30.43,10.0,North,10.4,-,N/A,,Partly Cloudy,350,2013-01-16 03:56:00
8:56 PM,46.9,34.0,61,30.42,10.0,NNW,5.8,-,N/A,,Partly Cloudy,340,2013-01-16 04:56:00
9:56 PM,46.0,37.0,71,30.42,10.0,NNE,10.4,-,N/A,,Clear,20,2013-01-16 05:56:00
10:56 PM,45.0,36.0,71,30.43,10.0,NNW,9.2,-,N/A,,Clear,340,2013-01-16 06:56:00
11:56 PM,46.0,32.0,58,30.43,10.0,ENE,9.2,-,N/A,,Clear,60,2013-01-16 07:56:00